Starlink 35370

operational
NORAD ID: 66085 Int'l Des: 2025-235 Owner: SPXS Country: US Constellation: starlink
NOTLE

About Starlink 35370

Description loading...

Live Position

Loading 3D Globe...

Upcoming Passes

Altitude History

Altitude vs Time

uPlot chart will show altitude changes over time

Two-Line Element Set

1 66085U 25235AD 25310.91668981 -.01917351 00000-0 -26369-1 0 9997
2 66085 53.1600 98.3933 0000681 59.6660 315.0515 15.60009981 4074
Epoch: Nov 6, 2025 • Age: 5 hours

Current Status

Altitude 396.6 km
Velocity 7.67 km/s
Sub-Earth Point -20.23°S, 164.79°W
Launch Date Oct 19, 2025
Age 18 days
Type internet

Technical Details

Classification Payload
Mass 575.00 kg
Dry Mass 530.00 kg
Total Mass 575.00 kg
Length 0.30 m
Diameter 4.10 m
Span 29.00 m
Shape Box + pan
Manufacturer SPXS
Bus Type Starlink V2MO
Phase Status In Orbit
Owner/State SPXS/US

Large Constellations

Loading constellations...